Hourly Data Report for October 08, 2016

All times are specified in Local Standard Time (LST). Add 1 hour to adjust for Daylight Saving Time where and when it is observed.

HALL BEACH A
NUNAVUT

68°46'33.000" N
81°14'33.000" W
9.10 m
2402354
71293
YUX

Download Data

Hourly Data (October 2016)
Hourly Data Report for October 8, 2016
Temp Definition
°C
Dew Point Temp Definition
°C
Rel Hum Definition
%
Wind Dir Definition
10's deg

Wind Spd Definition
km/h
Visibility Definition
km
Stn Press Definition
kPa
Hmdx Definition


Wind Chill Definition


Weather Definition


TIME
00:00 Legend Double Dagger -3.4 -4.2 94 35 28 16.1 102.09   -11 LegendNANA
01:00 Legend Double Dagger -3.2 -4.3 92 36 21 16.1 102.06   -9 LegendNANA
02:00 Legend Double Dagger -3.0 -4.4 90 35 17 16.1 102.04   -9 LegendNANA
03:00 Legend Double Dagger -4.0 -5.0 93 32 18 16.1 102.01   -10 LegendNANA
04:00 Legend Double Dagger -3.8 -4.8 93 29 15 16.1 101.99   -9 LegendNANA
05:00 Legend Double Dagger -3.3 -4.4 92 29 15 16.1 101.95   -8 Snow
06:00 Legend Double Dagger -3.2 -4.2 93 31 21 16.1 101.90   -9 Snow
07:00 Legend Double Dagger -3.1 -3.9 94 32 21 16.1 101.87   -9 Snow
08:00 Legend Double Dagger -3.0 -3.8 94 31 18 16.1 101.82   -9 Snow
09:00 Legend Double Dagger -3.0 -3.7 95 31 18 16.1 101.75   -9 Snow
10:00 Legend Double Dagger -2.4 -3.0 96 32 18 16.1 101.69   -8 Snow
11:00 Legend Double Dagger -1.8 -2.6 94 34 17 16.1 101.61   -7 Snow
12:00 Legend Double Dagger -2.1 -3.3 92 35 17 16.1 101.56   -7 Snow
13:00 Legend Double Dagger -2.5 -3.9 90 36 13 16.1 101.53   -7 LegendNANA
14:00 Legend Double Dagger -2.5 -3.8 91 34 13 16.1 101.49   -7 LegendNANA
15:00 Legend Double Dagger -2.8 -3.6 94 34 15 16.1 101.44   -8 LegendNANA
16:00 Legend Double Dagger -3.2 -3.9 95 33 15 16.1 101.41   -8 LegendNANA
17:00 Legend Double Dagger -3.1 -4.2 92 32 21 16.1 101.37   -9 LegendNANA
18:00 Legend Double Dagger -3.7 -5.0 91 33 21 16.1 101.34   -10 LegendNANA
19:00 Legend Double Dagger -3.7 -4.7 93 32 17 16.1 101.29   -9 LegendNANA
20:00 Legend Double Dagger -4.1 -5.1 93 33 18 16.1 101.26   -10 LegendNANA
21:00 Legend Double Dagger -4.4 -4.9 96 33 15 16.1 101.23   -10 LegendNANA
22:00 Legend Double Dagger -4.9 -5.4 96 29 15 16.1 101.18   -10 LegendNANA
23:00 Legend Double Dagger -4.9 -5.6 95 30 15 16.1 101.15   -10 LegendNANA

Notes on Data Quality.

Legend

  • E = Estimated
  • M = Missing
  • NA = Not Available
  • ‡ = Partner data that is not subject to review by the National Climate Archives
Date modified: